sat.trackr.live / text

‹ back to catalog

UNKNOWN

NORAD 81864

UNKNOWN UNKNOWN UNKNOWN

§ Identity

Operator
Country
Launch date
Launch site
Launch vehicle
Mass (kg)
RCS (m²)

External: N2YO · Heavens-Above

§ Orbital elements

Epoch: 2026-09-14T22:03:56.708640Z

Period
108.02 min
Inclination
65.6714°
Eccentricity
0.0771743
Mean motion
13.33085274 rev/d
Perigee alt
555.3 km
Apogee alt
1,715.0 km
Semi-major
7,513.3 km
B*
1.7407e-4
RAAN
140.6932°
Arg perigee
254.6472°
Mean anomaly
96.8083°
Rev number
58,764

§ Raw data

UNKNOWN1 81864U          26257.91940635  .00000389  00000+0  17407-3 0  99972 81864  65.6714 140.6932 0771743 254.6472  96.8083 13.33085274587642

JSON: /api/v1/satellites/81864 · /tle

For live sub-satellite position, see the globe view (requires WebGL).

§ Visibility from observer

Set your observer location to see the next 7 days of passes ≥ 10°. The values pass through the URL so the page stays shareable.

No JS? Fill the form by hand. The geolocation button needs JavaScript.